Wind_Speed
62 63 63 63 62 61 59 59 59 59 59 59 59 59 59 60 61 61 60 60 60 60 61 61 60 60 60 59 59 59 59 59 59 59 60 60 60 60 60 60 60 60
61 61 60 59 58 57 57 57 58 59 58 58 57 56 56 56 57 58 58 58 59 59 59 59 58 58 58 58 58 58 58 59 59 60 60 60 60 60 60 60 60 60
59 58 58 57 56 55 56 57 58 58 57 56 55 54 53 53 54 55 55 56 57 57 57 57 57 58 58 58 58 59 59 59 60 60 60 60 60 60 59 59 59 59
57 56 55 55 55 55 56 57 57 56 55 54 53 52 51 51 52 53 54 55 56 57 57 57 58 58 58 59 59 59 59 59 59 59 59 59 59 59 59 59 59 59
55 55 54 54 54 55 55 56 56 55 54 53 52 51 50 49 50 50 52 53 54 55 56 56 57 57 57 58 58 58 58 58 57 57 58 58 58 58 58 58 58 57
54 54 54 54 54 55 55 55 55 55 54 53 53 52 51 51 51 51 52 52 52 53 53 54 54 54 55 55 56 56 56 56 56 57 57 58 58 58 57 57 56 56
54 54 54 53 54 55 55 55 55 55 54 54 54 53 52 53 54 55 55 54 54 53 53 53 53 53 53 53 54 54 55 55 56 57 57 57 57 57 56 56 56 56
53 54 54 54 54 54 55 55 56 55 55 55 55 54 53 53 55 56 57 57 56 55 54 54 53 53 53 53 54 54 55 55 56 56 56 56 56 56 56 56 56 56
53 54 54 54 54 54 55 56 56 56 56 56 56 56 55 55 56 57 58 58 57 56 55 54 54 54 54 54 55 55 55 55 55 55 56 56 56 56 56 56 56 57
54 54 54 54 54 54 55 56 56 56 55 55 55 56 56 57 58 58 59 59 58 57 56 55 55 55 55 55 55 55 55 55 55 55 55 56 56 56 57 57 57 58
54 54 54 54 54 55 55 56 55 55 54 53 53 54 55 57 58 59 59 59 58 56 55 55 55 56 56 56 56 56 55 55 55 55 55 56 56 57 57 58 58 59
54 54 53 54 54 54 54 54 54 53 53 53 53 53 53 55 56 57 57 57 56 55 55 56 56 56 56 56 56 56 56 56 55 55 56 56 57 57 58 59 59 59
54 54 53 53 53 53 53 52 52 52 52 52 53 53 53 54 54 55 55 55 55 55 56 56 56 56 56 56 57 56 56 56 56 56 56 57 57 58 59 59 59 59
54 54 53 53 53 52 52 52 52 52 53 53 53 53 54 55 55 55 55 54 55 55 56 56 56 56 57 57 57 57 57 57 57 57 57 57 58 59 59 59 59 59
54 53 53 53 53 53 53 53 53 54 54 54 54 55 55 56 56 56 56 55 56 56 56 57 57 57 57 57 58 58 58 57 58 58 58 58 58 59 59 60 60 60
54 53 53 53 53 54 54 54 55 55 55 55 55 56 56 57 57 57 57 57 57 57 58 58 58 58 58 58 58 58 58 58 58 58 58 59 59 59 59 60 60 60
54 54 54 54 54 55 55 56 56 56 56 56 56 57 57 58 58 58 58 58 59 59 59 59 59 59 59 59 59 59 59 59 59 59 59 59 59 59 60 60 60 60
54 55 55 56 56 56 57 57 57 57 58 58 58 59 59 59 59 59 59 59 60 60 60 60 60 60 60 60 61 61 60 59 59 60 60 60 60 60 60 60 61 61
56 56 57 57 58 58 58 58 58 59 60 60 61 61 61 60 60 60 60 60 60 60 60 60 60 61 61 61 61 61 61 61 60 60 60 60 60 60 60 60 61 61
57 58 59 59 59 59 59 60 60 61 62 62 61 61 61 61 60 60 60 60 60 60 60 60 60 61 62 62 62 62 62 62 61 60 60 59 59 60 60 60 61 61
59 60 61 61 61 61 61 62 62 62 62 61 61 61 61 60 60 59 59 59 60 60 60 60 61 61 62 62 62 62 62 62 61 61 60 60 59 60 60 61 61 61
62 63 63 63 63 63 62 62 62 62 62 62 61 61 60 59 58 58 58 59 59 59 59 60 61 62 62 62 62 62 62 62 61 61 60 60 60 60 61 62 62 61
65 65 64 64 63 62 62 61 61 61 61 61 61 60 59 58 58 58 59 59 59 59 59 60 61 62 62 62 62 63 62 62 61 61 60 60 60 61 62 62 62 62
65 65 64 63 62 61 61 61 61 60 60 60 60 59 59 58 58 59 59 59 59 59 59 60 61 62 62 62 62 62 62 61 61 60 60 60 60 61 62 62 62 62
64 63 62 62 61 60 59 59 59 59 59 59 59 59 59 59 59 59 59 59 59 59 60 60 61 62 62 62 62 62 61 60 60 60 60 60 61 61 61 61 62 63
62 62 61 60 59 58 58 59 58 59 59 59 59 58 58 58 58 58 59 59 59 60 60 60 61 61 62 61 61 61 61 60 59 59 60 60 61 61 61 61 62 63
Wind_Direction
297 298 299 300 301 302 303 303 302 301 300 298 296 293 290 288 287 287 286 286 285 285 284 284 285 284 284 284 284 284 284 284 284 284 285 285 285 285 286 286 286 286
296 298 299 300 301 302 302 302 301 300 299 297 295 294 291 289 288 288 288 288 287 287 286 286 286 285 285 285 285 284 284 284 284 284 285 285 285 286 286 286 287 287
296 298 299 300 301 301 301 301 300 299 298 296 295 293 291 290 289 289 289 288 288 287 287 287 286 286 285 285 285 285 284 284 284 284 285 285 285 286 286 287 288 288
295 297 298 299 299 299 299 299 299 298 297 295 294 291 291 291 291 290 289 288 288 288 288 287 287 286 286 286 286 285 285 285 284 284 285 285 286 286 287 288 288 288
294 296 296 296 296 297 297 298 297 297 295 294 292 290 290 291 292 292 291 291 290 289 289 288 287 287 287 286 286 285 285 285 285 285 286 286 287 287 287 288 288 288
293 294 294 294 294 295 296 296 296 295 294 292 291 290 288 288 290 292 293 293 292 291 289 288 287 287 286 286 285 285 285 285 286 286 286 287 287 287 287 287 287 287
291 291 292 292 292 293 293 294 294 293 292 290 289 288 287 286 287 290 291 292 292 291 290 288 287 286 285 285 285 285 286 286 286 287 287 287 287 287 287 287 287 287
290 290 291 290 290 291 291 292 292 292 291 290 287 286 286 286 286 287 289 290 291 291 290 288 287 286 286 285 285 286 286 286 286 287 287 287 287 287 287 288 287 287
288 289 289 289 290 289 289 289 290 290 291 290 288 286 285 285 285 287 288 290 290 290 289 288 287 286 286 286 286 286 286 286 287 287 287 287 287 287 287 287 287 287
287 288 289 289 289 288 287 288 289 290 290 290 289 287 285 284 285 286 288 289 289 289 289 288 287 286 286 286 286 287 287 287 287 287 287 287 287 287 287 287 287 287
286 287 287 287 286 286 287 288 289 289 290 290 290 288 286 284 285 286 287 288 288 288 287 287 286 286 286 286 286 286 286 287 287 287 287 287 287 287 287 287 287 286
285 285 285 285 285 285 286 288 288 289 289 289 289 288 287 286 286 286 287 287 287 287 286 286 285 286 286 286 286 286 287 287 288 288 287 287 287 286 286 286 286 286
284 284 284 283 284 285 286 287 288 288 288 289 289 289 288 287 287 286 286 286 286 286 285 285 286 286 286 286 286 287 287 288 288 288 288 287 287 286 286 286 285 285
282 282 282 282 283 283 284 285 286 286 287 288 288 288 288 287 286 286 286 286 285 285 285 285 285 285 286 286 287 288 288 288 288 288 288 287 287 286 286 285 285 285
281 281 281 281 281 282 283 284 284 285 286 287 287 287 287 287 287 286 286 286 285 285 285 285 285 286 286 287 288 288 288 288 288 288 288 287 286 285 285 285 285 285
280 280 280 280 280 281 282 283 283 284 286 286 287 287 287 286 286 286 286 286 285 285 285 286 286 287 287 287 288 288 288 288 289 288 288 287 286 285 285 285 285 285
279 279 278 279 279 280 281 282 283 284 286 286 287 286 286 286 286 286 286 286 286 286 286 287 287 287 287 287 287 287 288 288 288 288 287 286 286 285 285 285 285 286
278 278 278 278 279 280 281 282 283 285 286 286 286 286 286 286 286 285 285 285 286 286 286 286 287 287 287 287 287 287 288 288 288 288 287 286 285 285 285 285 286 286
277 277 277 278 279 280 281 282 283 284 285 286 286 286 286 285 285 285 285 285 285 285 285 286 286 286 287 287 287 287 287 288 288 287 287 286 285 285 285 286 286 287
277 277 277 278 279 280 281 283 284 285 285 286 285 285 284 284 284 284 284 284 284 285 285 286 286 285 286 286 286 287 287 287 287 287 286 286 285 286 286 286 287 287
277 277 277 278 280 281 282 284 285 285 285 285 284 284 284 284 284 284 284 284 284 284 285 285 285 285 285 286 286 286 286 287 287 286 286 285 285 286 287 287 287 288
276 277 278 279 281 282 284 284 284 284 284 284 284 284 285 285 285 284 284 284 284 284 284 284 284 285 285 285 285 285 286 286 286 286 285 285 285 286 287 287 287 288
277 278 280 281 282 283 283 283 283 283 283 284 284 284 285 285 285 284 284 284 284 284 284 284 284 284 285 285 285 285 286 286 286 286 285 285 285 286 286 287 288 288
279 280 281 282 282 283 283 282 282 283 283 283 284 284 284 285 285 284 284 284 284 284 284 284 284 284 284 284 285 285 286 286 286 286 285 285 285 286 287 287 288 289
280 281 281 281 282 282 282 282 282 282 283 283 283 284 284 284 284 285 285 285 285 285 284 284 284 283 284 284 284 285 285 285 285 285 285 285 285 286 287 288 288 289
280 281 281 281 281 281 281 281 282 282 282 283 283 284 284 284 284 285 285 286 285 285 285 285 285 284 285 285 285 285 285 285 285 285 284 285 285 286 287 288 288 288
Height
5614 5611 5608 5606 5604 5601 5598 5596 5594 5592 5590 5586 5584 5582 5580 5578 5576 5574 5573 5572 5570 5568 5566 5565 5564 5562 5561 5560 5558 5556 5555 5553 5552 5550 5548 5547 5546 5544 5544 5542 5540 5540
5606 5604 5601 5598 5596 5594 5592 5590 5587 5584 5582 5580 5578 5576 5574 5572 5570 5568 5566 5564 5563 5561 5560 5558 5557 5556 5554 5552 5551 5550 5548 5546 5544 5542 5541 5540 5538 5537 5536 5534 5533 5532
5600 5596 5594 5591 5589 5586 5584 5582 5580 5578 5575 5573 5571 5569 5567 5565 5564 5562 5560 5558 5556 5554 5553 5552 5550 5548 5547 5546 5544 5542 5541 5540 5538 5536 5534 5532 5531 5530 5528 5527 5525 5524
5592 5590 5586 5584 5582 5580 5578 5576 5573 5570 5568 5566 5564 5562 5561 5560 5558 5556 5554 5552 5550 5548 5546 5545 5543 5542 5540 5538 5537 5536 5534 5532 5530 5528 5526 5525 5524 5522 5520 5520 5518 5516
5585 5582 5580 5578 5576 5573 5571 5568 5566 5564 5562 5560 5558 5556 5554 5554 5552 5550 5548 5546 5544 5542 5540 5538 5536 5535 5534 5532 5530 5528 5526 5525 5524 5522 5520 5518 5516 5514 5513 5512 5510 5508
5578 5576 5573 5571 5569 5566 5564 5562 5560 5558 5555 5553 5550 5549 5548 5546 5545 5544 5542 5540 5538 5536 5534 5532 5530 5528 5527 5525 5523 5522 5520 5518 5516 5514 5512 5510 5508 5507 5506 5504 5502 5500
5570 5568 5566 5565 5562 5560 5558 5555 5553 5550 5548 5546 5544 5542 5541 5540 5538 5536 5535 5533 5531 5529 5527 5526 5524 5522 5520 5518 5516 5515 5514 5511 5510 5507 5505 5503 5501 5500 5498 5496 5495 5493
5563 5562 5560 5558 5556 5554 5550 5548 5546 5544 5542 5540 5538 5536 5534 5532 5531 5530 5528 5526 5524 5522 5520 5518 5517 5516 5514 5512 5510 5508 5506 5504 5502 5500 5498 5496 5494 5492 5490 5489 5488 5486
5556 5554 5552 5551 5549 5546 5544 5541 5538 5536 5535 5533 5530 5529 5528 5526 5524 5522 5520 5519 5517 5515 5514 5512 5510 5508 5506 5505 5503 5501 5499 5497 5495 5493 5490 5488 5486 5484 5483 5482 5480 5478
5548 5548 5546 5544 5542 5538 5536 5534 5532 5530 5528 5526 5524 5522 5520 5518 5516 5515 5513 5512 5510 5508 5506 5504 5503 5501 5499 5498 5496 5494 5492 5490 5488 5486 5484 5482 5479 5477 5476 5474 5472 5470
5541 5540 5538 5536 5534 5531 5529 5527 5525 5523 5521 5518 5516 5514 5512 5511 5509 5508 5506 5504 5502 5500 5499 5498 5496 5494 5492 5490 5488 5486 5484 5482 5481 5479 5476 5474 5472 5470 5468 5466 5465 5463
5534 5532 5530 5528 5526 5524 5522 5520 5518 5516 5514 5512 5510 5508 5506 5504 5502 5500 5498 5496 5494 5493 5492 5490 5488 5486 5485 5483 5481 5480 5478 5476 5474 5472 5469 5467 5465 5463 5461 5459 5458 5456
5526 5524 5522 5520 5518 5517 5515 5513 5511 5508 5506 5504 5502 5501 5499 5497 5494 5492 5491 5490 5488 5486 5484 5482 5481 5480 5478 5476 5474 5472 5470 5468 5466 5464 5462 5460 5458 5456 5454 5452 5450 5448
5518 5516 5515 5513 5512 5510 5508 5506 5504 5502 5500 5498 5496 5494 5492 5490 5488 5486 5484 5482 5480 5478 5476 5475 5473 5472 5470 5468 5466 5464 5462 5461 5458 5456 5454 5452 5450 5448 5446 5444 5442 5440
5510 5509 5508 5506 5504 5502 5500 5498 5496 5494 5492 5491 5489 5487 5484 5482 5480 5478 5476 5475 5472 5470 5468 5467 5465 5464 5462 5460 5458 5457 5455 5454 5452 5450 5447 5445 5442 5440 5438 5436 5434 5432
5502 5502 5500 5498 5496 5494 5492 5490 5488 5486 5485 5484 5482 5480 5478 5475 5473 5471 5469 5467 5464 5462 5460 5458 5457 5455 5454 5452 5451 5450 5448 5446 5444 5442 5440 5438 5434 5432 5430 5428 5426 5425
5495 5494 5492 5490 5488 5486 5484 5483 5481 5479 5478 5476 5474 5472 5470 5468 5466 5464 5462 5459 5457 5454 5452 5450 5448 5447 5446 5444 5443 5442 5440 5439 5437 5434 5432 5430 5427 5424 5422 5420 5418 5417
5486 5485 5484 5482 5480 5478 5476 5474 5473 5472 5470 5468 5466 5464 5462 5460 5458 5456 5454 5452 5449 5447 5444 5442 5440 5439 5438 5436 5434 5434 5433 5432 5430 5426 5424 5422 5419 5416 5414 5412 5410 5408
5478 5476 5475 5473 5472 5470 5468 5467 5465 5464 5462 5460 5457 5455 5453 5452 5450 5448 5446 5444 5442 5439 5436 5435 5433 5431 5430 5428 5426 5426 5424 5424 5423 5420 5416 5414 5410 5408 5406 5404 5402 5400
5469 5468 5466 5464 5464 5462 5460 5459 5457 5455 5452 5450 5448 5446 5444 5442 5440 5439 5437 5435 5433 5431 5429 5427 5424 5422 5422 5420 5419 5418 5416 5416 5415 5413 5410 5406 5403 5400 5398 5396 5393 5392
5460 5458 5457 5456 5455 5454 5452 5450 5448 5446 5444 5442 5439 5438 5436 5434 5432 5430 5428 5426 5424 5423 5421 5418 5416 5414 5413 5412 5410 5410 5408 5408 5406 5405 5402 5400 5396 5392 5389 5387 5384 5383
5451 5450 5449 5448 5446 5446 5444 5442 5439 5436 5434 5432 5430 5428 5427 5426 5424 5422 5420 5418 5416 5414 5412 5410 5407 5406 5404 5403 5402 5400 5400 5399 5398 5396 5394 5392 5388 5384 5382 5378 5376 5374
5442 5442 5441 5440 5438 5436 5434 5432 5430 5427 5426 5424 5422 5420 5418 5417 5415 5413 5411 5409 5408 5406 5404 5402 5398 5396 5396 5394 5393 5392 5392 5391 5390 5388 5386 5384 5380 5377 5374 5371 5368 5366
5434 5433 5432 5430 5428 5426 5424 5422 5420 5418 5417 5416 5414 5412 5410 5408 5406 5404 5402 5400 5399 5397 5396 5393 5390 5388 5387 5386 5384 5384 5384 5383 5382 5380 5378 5375 5372 5369 5366 5363 5360 5358
5425 5424 5422 5420 5418 5417 5415 5413 5412 5410 5408 5407 5406 5404 5402 5400 5398 5396 5394 5392 5390 5388 5386 5385 5382 5380 5378 5378 5376 5375 5375 5375 5374 5372 5370 5366 5364 5362 5358 5354 5352 5349
5416 5414 5412 5411 5410 5408 5406 5404 5404 5402 5400 5399 5397 5396 5394 5392 5390 5388 5386 5384 5382 5380 5378 5376 5374 5371 5370 5369 5368 5366 5366 5366 5366 5364 5362 5358 5356 5354 5350 5346 5342 5340